Weather History for KGPI - November, 2011

Change the Weather History Date:

Thursday, November 3, 2011

  Actual Average Record
Temperature  
Mean Temperature 32 °F 36 °F  
Max Temperature 48 °F 46 °F 65 °F (1975)
Min Temperature 15 °F 27 °F -1 °F (1935)
Degree Days  
Heating Degree Days 33 29  
Month to date heating degree days 98 86  
Since 1 July heating degree days 1132 1294  
Cooling Degree Days 0 0  
Month to date cooling degree days 0 0  
Year to date cooling degree days 97 147  
Moisture  
Dew Point 20 °F    
Average Humidity 65    
Maximum Humidity 96    
Minimum Humidity 34    
Precipitation  
Precipitation 0.00 in 0.04 in 0.54 in (1959)
Month to date precipitation 0.00 0.13  
Year to date precipitation 15.01 14.13  
Snow  
Snow 0.00 in - - ()
Month to date snowfall 0.0  
Year to date snowfall 27.0  
Since 1 July snowfall T  
Snow Depth 0.00 in    
Sea Level Pressure  
Sea Level Pressure 29.87 in    
Wind  
Wind Speed 1 mph (WNW)    
Max Wind Speed 25 mph    
Max Gust Speed 25 mph    
Visibility 10 miles    
Events      
T = Trace of Precipitation, MM = Missing Value Source: NWS Daily Summary

Daily Weather History Graph

Daily Weather History Graph

Search for Another Location

Airport or City:

Trip Planner

Search our weather history database for the weather conditions in past years. The results will help you decide how hot, cold, wet, or windy it might be!

Date:

Astronomy

Nov. 03, 2011 Rise Set
Actual Time 8:25 AM MDT 6:14 PM MDT
Civil Twilight 7:52 AM MDT 6:47 PM MDT
Nautical Twilight 7:15 AM MDT 7:24 PM MDT
Astronomical Twilight 6:39 AM MDT 8:01 PM MDT
Moon 3:08 PM MDT 1:10 AM MDT
Length of Visible Light 10h 55m
Length of Day
9h 49m
First Quarter, 61% of the Moon is Illuminated
Nov 3
First Quarter
Nov 10
Full
Nov 18
Last Quarter
Nov 24
New
Dec 2
First Quarter

Hourly Weather History & Observations

Time (MDT) Temp. Windchill Dew Point Humidity Pressure Visibility Wind Dir Wind Speed Gust Speed Precip Events Conditions
12:55 AM 19.0 °F - 16.0 °F 88% 30.02 in 10.0 mi Calm Calm - N/A   Clear
1:55 AM 19.0 °F - 16.0 °F 88% 30.02 in 10.0 mi Calm Calm - N/A   Clear
2:55 AM 17.6 °F - 15.8 °F 93% 29.92 in 10.0 mi Calm Calm - N/A   Clear
3:55 AM 17.1 °F - 14.0 °F 88% 29.98 in 10.0 mi Calm Calm - N/A   Clear
4:55 AM 17.1 °F - 14.0 °F 88% 29.96 in 10.0 mi Calm Calm - N/A   Clear
5:55 AM 17.1 °F - 14.0 °F 88% 29.95 in 10.0 mi Calm Calm - N/A   Clear
6:55 AM 17.1 °F - 14.0 °F 88% 29.95 in 10.0 mi Calm Calm - N/A   Clear
7:55 AM 15.1 °F - 12.9 °F 91% 29.96 in 10.0 mi North - - N/A   Clear
8:55 AM 17.1 °F - 14.0 °F 88% 29.96 in 10.0 mi Calm Calm - N/A   Clear
9:55 AM 23.0 °F - 21.0 °F 92% 29.93 in 10.0 mi Calm Calm - N/A   Clear
10:55 AM 30.9 °F - 25.0 °F 79% 29.91 in 10.0 mi Calm Calm - N/A   Scattered Clouds
11:55 AM 34.0 °F - 27.0 °F 75% 29.88 in 10.0 mi Calm Calm - N/A   Mostly Cloudy
12:55 PM 39.0 °F - 27.0 °F 62% 29.85 in 10.0 mi Calm Calm - N/A   Clear
1:55 PM 44.1 °F - 19.9 °F 38% 29.81 in 10.0 mi Calm Calm - N/A   Clear
2:55 PM 46.0 °F 44.8 °F 21.0 °F 37% 29.80 in 10.0 mi Variable 3.5 mph - N/A   Clear
3:55 PM 46.0 °F - 19.0 °F 34% 29.80 in 10.0 mi Calm Calm - N/A   Clear
4:55 PM 46.0 °F - 21.9 °F 39% 29.78 in 10.0 mi Calm Calm - N/A   Clear
5:55 PM 42.1 °F - 23.0 °F 47% 29.79 in 10.0 mi Calm Calm - N/A   Mostly Cloudy
6:55 PM 30.9 °F - 24.1 °F 76% 29.81 in 10.0 mi Calm Calm - N/A   Partly Cloudy
7:43 PM 30.2 °F 26.7 °F 21.2 °F 69% 29.70 in 10.0 mi WNW 3.5 mph 25.3 mph N/A   Squalls
7:55 PM 30.0 °F - 21.9 °F 72% 29.80 in 10.0 mi Calm Calm - N/A   Mostly Cloudy
8:55 PM 30.0 °F - 25.0 °F 82% 29.81 in 10.0 mi Calm Calm - N/A   Overcast
9:55 PM 27.0 °F - 23.0 °F 85% 29.79 in 10.0 mi Calm Calm - N/A   Partly Cloudy
10:55 PM 28.9 °F - 21.0 °F 72% 29.76 in 10.0 mi Calm Calm - N/A   Clear
11:55 PM 27.0 °F 23.0 °F 21.0 °F 78% 29.75 in 10.0 mi West 3.5 mph - N/A   Partly Cloudy